Tracking 18851 objects as of 24-Nov-2017
HD Live streaming from Space Station
objects crossing your sky now

FENGYUN 1C DEB

Track FENGYUN 1C DEB now!
10-day predictions


NORAD ID: 30061
Int'l Code: 1999-025PN
Perigee: 838.3 km
Apogee: 1,429.8 km
Inclination: 101.9 °
Period: 107.8 minutes
Semi major axis: 7505 km
RCS: 0.0503 m2 (small)
Launch date: May 10, 1999
Source: People's Republic of China (PRC)
Launch site: Taiyaun Space Center, China (TSC)

Note: This is SATELLITE DEBRIS
aabbcc
Your satellite tracking list
Your tracking list is empty




NASA's NSSDC Master Catalog

Two Line Element Set (TLE):
1 30061U 99025PN  17327.78104062  .00001202  00000-0  15996-2 0  9990
2 30061 101.8630 256.3598 0394076   5.3889  51.0213 13.35275913527635
Source of the keplerian elements: AFSPC